Idaho Falls, ID

4:06 PM MST on November 24, 2017 (GMT -0700)
Fanning

Weather History for KIDA - November, 2012

Change the Weather History Date:

Sunday, November 11, 2012

  Actual Average Record
Temperature  
Mean Temperature 20 °F 35 °F  
Max Temperature 28 °F 45 °F 67 °F (1954)
Min Temperature 11 °F 24 °F 2 °F (2000)
Degree Days  
Heating Degree Days 45 30  
Month to date heating degree days 279 307  
Since 1 July heating degree days 1042 1229  
Cooling Degree Days 0 0  
Month to date cooling degree days 0 0  
Year to date cooling degree days 444 264  
Moisture  
Dew Point 15 °F    
Average Humidity 78    
Maximum Humidity 92    
Minimum Humidity 63    
Precipitation  
Precipitation 0.00 in 0.03 in 0.46 in (1983)
Month to date precipitation 0.11 0.29  
Year to date precipitation 5.29 8.94  
Sea Level Pressure  
Sea Level Pressure 30.30 in    
Wind  
Wind Speed 9 mph (SSW)    
Max Wind Speed 21 mph    
Max Gust Speed 24 mph    
Visibility 9 miles    
Events      
T = Trace of Precipitation, MM = Missing Value Source: NWS Daily Summary

Daily Weather History Graph

Daily Weather History Graph

Search for Another Location

Airport or City:

Trip Planner

Search our weather history database for the weather conditions in past years. The results will help you decide how hot, cold, wet, or windy it might be!

Date:

Astronomy

Nov. 11, 2012 Rise Set
Actual Time 7:17 AM MST 5:06 PM MST
Civil Twilight 6:46 AM MST 5:37 PM MST
Nautical Twilight 6:12 AM MST 6:11 PM MST
Astronomical Twilight 5:38 AM MST 6:45 PM MST
Moon 4:32 AM MST (11/11) 3:35 PM MST (11/11)
Length of Visible Light 10h 50m
Length of Day
9h 49m
Waning Crescent, 7% of the Moon is Illuminated
Nov 11
Waning Crescent
Nov 13
New
Nov 20
First Quarter
Nov 28
Full
Dec 6
Last Quarter

Hourly Weather History & Observations

Time (MST) Temp. Windchill Dew Point Humidity Pressure Visibility Wind Dir Wind Speed Gust Speed Precip Events Conditions
12:53 AM 18.0 °F - 15.1 °F 88% 30.10 in 10.0 mi Calm Calm - N/A   Clear
1:53 AM 18.0 °F - 10.9 °F 74% 30.12 in 10.0 mi Calm Calm - N/A   Scattered Clouds
2:53 AM 19.0 °F - 12.0 °F 74% 30.14 in 10.0 mi Calm Calm - N/A   Overcast
3:53 AM 17.1 °F - 12.9 °F 84% 30.16 in 10.0 mi Calm Calm - N/A   Overcast
4:53 AM 17.1 °F 10.0 °F 12.0 °F 81% 30.19 in 10.0 mi SSW 4.6 mph - N/A   Overcast
5:53 AM 14.0 °F 6.5 °F 10.0 °F 84% 30.22 in 10.0 mi SW 4.6 mph - N/A   Clear
6:53 AM 15.1 °F 9.4 °F 10.9 °F 84% 30.23 in 10.0 mi Variable 3.5 mph - N/A   Clear
8:00 AM 14.0 °F 8.2 °F 10.4 °F 86% 30.12 in 2.0 mi SW 3.5 mph - N/A   Mostly Cloudy
8:04 AM 15.8 °F 10.2 °F 10.4 °F 79% 30.12 in 0.5 mi SSW 3.5 mph - N/A   Mostly Cloudy
8:24 AM 15.8 °F 10.2 °F 12.2 °F 86% 30.13 in 10.0 mi WSW 3.5 mph - N/A   Scattered Clouds
8:53 AM 17.1 °F 7.6 °F 12.0 °F 81% 30.29 in 10.0 mi SW 6.9 mph - N/A   Clear
9:53 AM 19.9 °F 9.3 °F 14.0 °F 78% 30.30 in 10.0 mi SW 9.2 mph - N/A   Partly Cloudy
10:19 AM 21.2 °F 7.8 °F 17.6 °F 86% 30.18 in 10.0 mi SSW 15.0 mph - N/A   Mostly Cloudy
10:53 AM 21.9 °F 9.2 °F 17.1 °F 82% 30.33 in 10.0 mi SW 13.8 mph - N/A   Overcast
11:53 AM 21.0 °F 7.1 °F 17.1 °F 85% 30.35 in 10.0 mi SSW 16.1 mph - N/A   Mostly Cloudy
12:53 PM 21.9 °F 7.8 °F 17.1 °F 82% 30.36 in 10.0 mi SW 17.3 mph - N/A   Mostly Cloudy
1:44 PM 24.8 °F 11.5 °F 17.6 °F 74% 30.21 in 10.0 mi SSW 17.3 mph - N/A   Scattered Clouds
1:53 PM 24.1 °F 11.5 °F 17.1 °F 75% 30.35 in 10.0 mi SW 15.0 mph - N/A   Scattered Clouds
2:53 PM 26.1 °F 14.5 °F 17.1 °F 69% 30.35 in 10.0 mi SSW 13.8 mph - N/A   Clear
3:53 PM 27.0 °F 18.0 °F 16.0 °F 63% 30.38 in 10.0 mi SSW 9.2 mph - N/A   Partly Cloudy
4:53 PM 28.0 °F 18.6 °F 18.0 °F 66% 30.39 in 10.0 mi SSW 10.4 mph - N/A   Overcast
5:53 PM 26.1 °F 14.5 °F 17.1 °F 69% 30.43 in 10.0 mi SSW 13.8 mph - N/A   Scattered Clouds
6:53 PM 26.1 °F 15.6 °F 16.0 °F 66% 30.45 in 10.0 mi South 11.5 mph - N/A   Clear
7:53 PM 24.1 °F 12.0 °F 16.0 °F 71% 30.48 in 10.0 mi SSW 13.8 mph - N/A   Clear
8:53 PM 24.1 °F 12.5 °F 15.1 °F 69% 30.48 in 10.0 mi SSW 12.7 mph - N/A   Clear
9:53 PM 25.0 °F 12.6 °F 16.0 °F 69% 30.48 in 10.0 mi SSW 15.0 mph - N/A   Clear
10:53 PM 25.0 °F 14.2 °F 16.0 °F 69% 30.48 in 10.0 mi SSW 11.5 mph - N/A   Clear
11:53 PM 21.9 °F 11.7 °F 15.1 °F 75% 30.51 in 10.0 mi SW 9.2 mph - N/A   Clear